Location: ??
(35.5052°N, 139.7262°E)
Time: 16:12:02
(UTC+00:00)

Meteor 1-26 Rocket - Pass Details

Date: 20 June 2021
Orbit: 807 x 928 km, 81.3° (Epoch: 30 July)

Event Time Altitude Azimuth Distance (km) Brightness Sun altitude
Rises 17:11:59 0° 350° (N) 3,508 8.1 -21.3°
Reaches altitude 10° 17:14:25 10° 350° (N) 2,581 7.3 -21.0°
Maximum altitude 17:20:20 85° 263° (W) 923 4.3 -20.3°
Enters shadow 17:24:06 24° 176° (S) 1,799 5.5 -19.8°
